When you browse on this site, cookies collect data to enhance your experience and personalize the content and advertising you see.
Visit our Privacy Policy to learn more. By continuing to use the site, you agree to this use of cookies and data.

Hourly Weather Platava

Today, 22 September, Tuesday

Time Temperature Precipitation Wind Pressure Humidity
00:00 +9°C° 0 mm 3 mps 746 mmHg 82%
01:00 +9°C° 0 mm 3 mps 746 mmHg 84%
02:00 +9°C° 0 mm 3 mps 746 mmHg 85%
03:00 +9°C° 0 mm 3 mps 746 mmHg 89%
04:00 +9°C° 0 mm 3 mps 746 mmHg 91%
05:00 +8°C° 0 mm 4 mps 746 mmHg 92%
06:00 +8°C° 0 mm 4 mps 746 mmHg 93%
07:00 +10°C° 0 mm 4 mps 746 mmHg 89%
08:00 +11°C° 0 mm 4 mps 746 mmHg 84%
09:00 +13°C° 0 mm 5 mps 747 mmHg 77%
10:00 +14°C° 0 mm 5 mps 747 mmHg 70%
11:00 +16°C° 0 mm 6 mps 746 mmHg 64%
12:00 +17°C° 0 mm 6 mps 746 mmHg 57%
13:00 +19°C° 0 mm 6 mps 746 mmHg 54%
14:00 +20°C° 0 mm 6 mps 746 mmHg 51%
15:00 +20°C° 0 mm 6 mps 746 mmHg 49%
16:00 +19°C° 0 mm 6 mps 746 mmHg 54%
17:00 +17°C° 0 mm 5 mps 745 mmHg 59%
18:00 +17°C° 0 mm 4 mps 745 mmHg 63%
19:00 +15°C° 0 mm 4 mps 745 mmHg 67%
20:00 +14°C° 0 mm 4 mps 745 mmHg 71%
21:00 +13°C° 0 mm 4 mps 746 mmHg 74%
22:00 +13°C° 0 mm 4 mps 745 mmHg 77%
23:00 +12°C° 0 mm 3 mps 745 mmHg 79%

Tomorrow, 23 September, Wednesday

Time Temperature Precipitation Wind Pressure Humidity
00:00 +12°C° 0 mm 3 mps 745 mmHg 82%
01:00 +11°C° 0 mm 3 mps 745 mmHg 82%
02:00 +11°C° 0 mm 3 mps 745 mmHg 83%
03:00 +11°C° 0 mm 3 mps 745 mmHg 84%
04:00 +10°C° 0 mm 3 mps 745 mmHg 84%
05:00 +10°C° 0 mm 3 mps 745 mmHg 84%
06:00 +10°C° 0 mm 3 mps 745 mmHg 84%
07:00 +11°C° 0 mm 3 mps 746 mmHg 79%
08:00 +12°C° 0 mm 3 mps 746 mmHg 74%
09:00 +14°C° 0 mm 3 mps 746 mmHg 69%
10:00 +16°C° 0 mm 3 mps 746 mmHg 63%
11:00 +18°C° 0 mm 2 mps 746 mmHg 57%
12:00 +20°C° 0 mm 2 mps 746 mmHg 52%
13:00 +20°C° 0 mm 2 mps 746 mmHg 51%
14:00 +21°C° 0 mm 3 mps 746 mmHg 50%
15:00 +21°C° 0 mm 3 mps 746 mmHg 49%
16:00 +20°C° 0 mm 2 mps 745 mmHg 53%
17:00 +19°C° 0 mm 2 mps 745 mmHg 57%
18:00 +19°C° 0 mm 1 mps 745 mmHg 62%
19:00 +18°C° 0 mm 1 mps 745 mmHg 63%
20:00 +16°C° 0 mm 1 mps 745 mmHg 65%
21:00 +15°C° 0 mm 1 mps 745 mmHg 66%
22:00 +15°C° 0 mm 1 mps 745 mmHg 66%
23:00 +15°C° 0 mm 1 mps 745 mmHg 66%

Day after tomorrow, 24 September, Thursday

Time Temperature Precipitation Wind Pressure Humidity
00:00 +14°C° 0 mm 1 mps 745 mmHg 66%
01:00 +14°C° 0 mm 1 mps 745 mmHg 67%
02:00 +14°C° 0 mm 1 mps 746 mmHg 68%
03:00 +14°C° 0 mm 1 mps 746 mmHg 69%
04:00 +13°C° 0 mm 1 mps 746 mmHg 69%
05:00 +13°C° 0 mm 1 mps 746 mmHg 70%
06:00 +13°C° 0 mm 1 mps 746 mmHg 71%
07:00 +14°C° 0 mm 2 mps 746 mmHg 68%
08:00 +15°C° 0 mm 2 mps 746 mmHg 64%
09:00 +16°C° 0 mm 2 mps 746 mmHg 61%
10:00 +18°C° 0 mm 2 mps 746 mmHg 56%
11:00 +20°C° 0 mm 2 mps 746 mmHg 50%
12:00 +21°C° 0 mm 2 mps 746 mmHg 44%
13:00 +23°C° 0 mm 2 mps 746 mmHg 42%
14:00 +23°C° 0 mm 2 mps 746 mmHg 40%
15:00 +24°C° 0 mm 2 mps 746 mmHg 38%
16:00 +23°C° 0 mm 2 mps 746 mmHg 43%
17:00 +20°C° 0 mm 2 mps 745 mmHg 47%
18:00 +19°C° 0 mm 2 mps 745 mmHg 52%
19:00 +18°C° 0 mm 2 mps 745 mmHg 53%
20:00 +17°C° 0 mm 2 mps 746 mmHg 55%
21:00 +16°C° 0 mm 2 mps 746 mmHg 56%
22:00 +16°C° 0 mm 2 mps 746 mmHg 58%
23:00 +15°C° 0 mm 2 mps 746 mmHg 59%

25 September, Friday

Time Temperature Precipitation Wind Pressure Humidity
00:00 +15°C° 0 mm 2 mps 746 mmHg 60%
01:00 +14°C° 0 mm 2 mps 746 mmHg 61%
02:00 +14°C° 0 mm 2 mps 746 mmHg 62%
03:00 +13°C° 0 mm 2 mps 746 mmHg 63%
04:00 +13°C° 0 mm 2 mps 745 mmHg 64%
05:00 +13°C° 0 mm 2 mps 745 mmHg 65%
06:00 +12°C° 0 mm 2 mps 745 mmHg 66%
07:00 +13°C° 0 mm 3 mps 745 mmHg 63%
08:00 +14°C° 0 mm 3 mps 745 mmHg 60%
09:00 +16°C° 0 mm 3 mps 745 mmHg 57%
10:00 +18°C° 0 mm 3 mps 745 mmHg 52%
11:00 +20°C° 0 mm 3 mps 745 mmHg 48%
12:00 +22°C° 0 mm 3 mps 746 mmHg 44%
13:00 +22°C° 0 mm 4 mps 745 mmHg 42%
14:00 +23°C° 0 mm 4 mps 745 mmHg 41%
15:00 +23°C° 0 mm 4 mps 745 mmHg 40%
16:00 +22°C° 0 mm 4 mps 745 mmHg 45%
17:00 +20°C° 0 mm 4 mps 745 mmHg 50%
18:00 +19°C° 0 mm 3 mps 744 mmHg 55%
19:00 +18°C° 0 mm 3 mps 745 mmHg 56%
20:00 +18°C° 0 mm 4 mps 745 mmHg 57%
21:00 +17°C° 0 mm 4 mps 745 mmHg 58%
22:00 +15°C° 0 mm 4 mps 745 mmHg 59%
23:00 +15°C° 0 mm 4 mps 745 mmHg 60%

26 September, Saturday

Time Temperature Precipitation Wind Pressure Humidity
00:00 +15°C° 0 mm 4 mps 745 mmHg 60%
01:00 +14°C° 0 mm 4 mps 745 mmHg 61%
02:00 +14°C° 0 mm 4 mps 745 mmHg 61%
03:00 +13°C° 0 mm 4 mps 745 mmHg 62%
04:00 +13°C° 0 mm 4 mps 745 mmHg 61%
05:00 +13°C° 0 mm 4 mps 745 mmHg 60%
06:00 +12°C° 0 mm 4 mps 745 mmHg 60%
07:00 +13°C° 0 mm 5 mps 745 mmHg 56%
08:00 +14°C° 0 mm 5 mps 745 mmHg 53%
09:00 +15°C° 0 mm 5 mps 745 mmHg 50%
10:00 +16°C° 0 mm 6 mps 745 mmHg 47%
11:00 +19°C° 0 mm 6 mps 745 mmHg 44%
12:00 +21°C° 0 mm 6 mps 745 mmHg 42%
13:00 +21°C° 0 mm 6 mps 745 mmHg 41%
14:00 +22°C° 0 mm 6 mps 745 mmHg 40%
15:00 +23°C° 0 mm 6 mps 745 mmHg 39%
16:00 +22°C° 0 mm 6 mps 745 mmHg 42%
17:00 +21°C° 0 mm 5 mps 744 mmHg 46%
18:00 +20°C° 0 mm 5 mps 744 mmHg 49%
19:00 +19°C° 0 mm 5 mps 745 mmHg 48%
20:00 +17°C° 0 mm 5 mps 745 mmHg 48%
21:00 +17°C° 0 mm 5 mps 745 mmHg 47%
22:00 +16°C° 0 mm 5 mps 745 mmHg 46%
23:00 +16°C° 0 mm 6 mps 745 mmHg 46%

27 September, Sunday

Time Temperature Precipitation Wind Pressure Humidity
00:00 +16°C° 0 mm 6 mps 745 mmHg 45%
01:00 +15°C° 0 mm 5 mps 745 mmHg 45%
02:00 +15°C° 0 mm 5 mps 746 mmHg 44%
03:00 +14°C° 0 mm 5 mps 746 mmHg 43%
04:00 +14°C° 0 mm 5 mps 746 mmHg 43%
05:00 +13°C° 0 mm 5 mps 746 mmHg 42%
06:00 +12°C° 0 mm 5 mps 746 mmHg 42%
07:00 +13°C° 0 mm 6 mps 746 mmHg 43%
08:00 +13°C° 0 mm 6 mps 746 mmHg 44%
09:00 +14°C° 0 mm 7 mps 746 mmHg 45%
10:00 +15°C° 0 mm 7 mps 746 mmHg 42%
11:00 +16°C° 0 mm 8 mps 746 mmHg 39%
12:00 +18°C° 0 mm 8 mps 746 mmHg 36%
13:00 +18°C° 0 mm 8 mps 746 mmHg 36%
14:00 +20°C° 0 mm 8 mps 746 mmHg 37%
15:00 +20°C° 0 mm 8 mps 745 mmHg 37%
16:00 +20°C° 0 mm 8 mps 745 mmHg 37%
17:00 +18°C° 0 mm 7 mps 745 mmHg 38%
18:00 +18°C° 0 mm 7 mps 745 mmHg 38%
19:00 +18°C° 0 mm 7 mps 745 mmHg 37%
20:00 +18°C° 0 mm 8 mps 745 mmHg 36%
21:00 +17°C° 0 mm 8 mps 745 mmHg 35%
22:00 +17°C° 0 mm 8 mps 745 mmHg 34%
23:00 +17°C° 0 mm 8 mps 745 mmHg 33%
Show more